Location: Ohmer (historical)
(38.0096°N, 122.0227°W)
Time: 03:44:29
(UTC+00:00)

Cosmos 1503 Rocket - Pass Details

Date: 14 February 2026
Orbit: 748 x 787 km, 74.0° (Epoch: 7 March)

Event Time Altitude Azimuth Distance (km) Brightness Sun altitude
Exits shadow 13:13:26 30° 216° (SW) 1,324 4.9 -21.4°
Maximum altitude 13:15:56 67° 289° (WNW) 821 3.8 -20.9°
Drops below altitude 10° 13:21:08 10° 13° (NNE) 2,301 6.6 -19.9°
Sets 13:23:32 0° 16° (NNE) 3,237 7.4 -19.4°
